Home > Weather > Daytona Beach > Past weeks

Flag for U.S.A. Weather for the Past 2 Weeks in Daytona Beach, Florida, U.S.A.

Now
62 °F

Clear.


Feels Like: 62 °F
Forecast: 46 / 59 °F
Wind: 8 mph from Southwest

Location: Daytona Beach Regional Airport

Current Time: Feb 12, 2016 at 10:35:31 PM

Latest Report: Feb 12, 2016 at 8:53 PM


Visibility: 10 mi

Pressure: 30.17 "Hg

Humidity: 73%

Dew point: 53 °F

Location of Daytona BeachLocation

Historic Weather in Daytona Beach — Graph

°F

Daytona Beach Temperature Yesterday

Maximum temperature yesterday: 65 °F (at 1:53 PM)
Minimum temperature yesterday: 36 °F (at 12:53 AM)
Average temperature yesterday: 49 °F

High & Low Weather Summary for the Past Weeks

 TemperatureHumidityPressure
High83 °F (Feb 3, 12:53 PM)100% (Jan 28, 11:53 PM)30.35 "Hg (Jan 28, 11:53 PM)
Low36 °F (Feb 10, 6:53 AM)17% (Feb 10, 3:53 PM)29.78 "Hg (Jan 28, 8:53 PM)
Average58 °F72%30.09 "Hg
* Reported Jan 28 8:53 PM — Feb 12 8:53 PM, Daytona Beach, Weather by CustomWeather, © 2016

Note: Actual official high and low records may vary slightly from our data, if they occured in-between our weather recording intervals... More about our weather records

Advertising

Daytona Beach Weather History for the Previous 24 Hours

 ConditionsComfort  
Time TempWeatherWind HumidityBarometerVisibility
8:53 PM
Fri, Feb 12
62 °FClear.8 mph73%30.17 "Hg10 mi
7:53 PM63 °FPassing clouds.9 mph70%30.17 "Hg10 mi
6:53 PM65 °FClear.13 mph63%30.15 "Hg10 mi
5:53 PM68 °FPassing clouds.16 mph53%30.14 "Hg10 mi
4:53 PM72 °FPassing clouds.22 mph46%30.13 "Hg10 mi
3:53 PM75 °FPassing clouds.17 mph43%30.13 "Hg10 mi
2:53 PM75 °FPassing clouds.21 mph43%30.13 "Hg10 mi
1:53 PM73 °FScattered clouds.10 mph50%30.16 "Hg10 mi
12:53 PM73 °FPassing clouds.16 mph51%30.20 "Hg10 mi
11:53 AM71 °FPassing clouds.13 mph57%30.23 "Hg10 mi
10:53 AM68 °FPassing clouds.16 mph61%30.26 "Hg10 mi
9:53 AM63 °FPassing clouds.12 mph70%30.27 "Hg10 mi
8:53 AM56 °FPassing clouds.10 mph84%30.28 "Hg10 mi
7:53 AM50 °FPassing clouds.8 mph89%30.27 "Hg10 mi
6:53 AM47 °FPassing clouds.5 mph93%30.27 "Hg10 mi
5:53 AM46 °FClear.5 mph93%30.26 "Hg10 mi
4:53 AM46 °FClear.5 mph93%30.24 "Hg10 mi
3:53 AM46 °FClear.5 mph89%30.24 "Hg10 mi
2:53 AM46 °FClear.5 mph89%30.24 "Hg10 mi
1:53 AM47 °FClear.6 mph83%30.25 "Hg10 mi
12:53 AM47 °FClear.5 mph80%30.26 "Hg10 mi
11:53 PM
Thu, Feb 11
48 °FClear.No wind74%30.28 "Hg10 mi
10:53 PM49 °FClear.5 mph71%30.28 "Hg10 mi
Weather by CustomWeather, © 2016

See weather overviewHow to use our weather pages